EHI
4 4 4 3 2 1 0 0 0 0 0 0 0 0 0 0 0 0 0 0 0 0 0 0 0 0 0 0 0 0 0 0 0 0 0 0 0 0 0 0 0 0 0
3 3 3 3 2 1 0 0 0 0 0 0 0 0 0 0 0 0 0 0 0 0 0 0 0 0 0 0 0 0 0 0 0 0 0 0 0 0 0 0 0 0 0
2 3 3 3 1 0 0 0 0 0 0 0 0 0 0 0 0 0 0 0 0 0 0 0 0 0 0 0 0 0 0 0 0 0 0 0 0 0 0 0 0 0 0
2 3 4 3 1 0 0 0 0 0 0 0 0 0 0 0 0 0 0 0 0 0 0 0 0 0 0 0 0 0 0 0 0 0 0 0 0 0 0 0 0 0 0
1 3 3 2 1 0 0 0 0 0 0 0 0 0 0 0 0 0 0 0 0 0 0 0 0 0 0 0 0 0 0 0 1 1 0 0 0 0 0 0 0 0 0
0 1 1 1 0 0 0 0 0 0 0 0 0 0 0 0 0 0 0 0 0 0 0 0 0 0 0 0 0 0 0 0 1 2 1 1 0 0 0 0 0 0 0
0 0 0 0 0 0 0 0 0 0 0 0 0 0 0 0 0 0 0 0 0 0 0 0 0 0 0 0 0 0 0 0 1 2 2 2 1 0 0 0 0 1 1
0 0 0 0 0 0 0 0 0 0 0 0 0 0 0 0 0 0 0 0 0 0 0 0 0 0 0 0 0 0 0 0 0 1 2 3 2 1 1 1 1 1 2
0 0 0 0 0 0 0 0 0 0 0 0 0 0 0 0 0 0 0 0 0 0 0 0 0 0 0 0 0 0 0 0 0 0 1 2 2 2 2 2 1 1 2
0 0 0 0 0 0 0 0 0 0 0 0 0 0 0 0 0 0 0 0 0 0 0 0 0 0 0 0 0 0 0 0 0 0 0 1 1 2 3 2 1 1 1
0 0 0 0 0 0 0 0 0 0 0 0 0 0 0 0 0 0 0 0 0 0 0 0 0 0 0 0 0 0 0 0 0 0 0 0 0 1 2 1 1 0 0
0 0 0 0 0 0 0 0 0 0 0 0 0 0 0 0 0 0 0 0 0 0 0 0 0 0 0 0 0 0 0 0 0 0 0 0 0 1 1 0 0 0 0
0 0 0 0 0 0 0 0 0 0 0 0 0 0 0 0 0 0 0 0 0 0 0 0 0 0 0 0 0 0 0 0 0 0 0 0 0 0 0 0 0 0 0
0 0 0 0 0 0 0 0 0 0 0 0 0 0 0 0 0 0 0 0 0 0 0 0 0 0 0 0 0 0 0 0 0 0 0 0 0 0 0 0 0 0 0
0 0 0 0 0 0 0 0 0 0 0 0 0 0 0 0 0 0 0 0 0 0 0 0 0 0 0 0 0 0 0 0 0 0 0 0 0 0 0 0 0 0 0
0 0 0 0 0 0 0 0 0 0 0 0 0 0 0 0 0 0 0 0 0 0 0 0 0 0 0 0 0 0 0 0 0 0 0 0 0 0 0 0 0 0 0
0 0 0 0 0 0 0 0 0 0 0 0 0 0 0 0 0 0 0 0 0 0 0 0 0 0 0 0 0 0 0 0 0 0 0 0 0 0 0 0 0 0 0
0 0 0 0 0 0 0 0 0 0 0 0 0 0 0 0 0 0 0 0 0 0 0 0 0 0 0 0 0 0 0 0 0 0 0 0 0 0 0 0 0 0 0
0 0 0 0 0 0 0 0 0 0 0 0 0 0 0 0 0 0 0 0 0 0 0 0 0 0 0 0 0 0 0 0 0 0 0 0 0 0 0 0 0 0 0
0 0 0 0 0 0 0 0 0 0 0 0 0 0 0 0 0 0 0 0 0 0 0 0 0 0 0 0 0 0 0 0 0 0 0 0 0 0 0 0 0 0 0
0 0 0 0 0 0 0 0 0 0 0 0 0 0 0 0 0 0 0 0 0 0 0 0 0 0 0 0 0 0 0 0 0 0 0 0 0 0 0 0 0 0 0
0 0 0 0 0 0 0 0 0 0 0 0 0 0 0 0 0 0 0 0 0 0 0 0 0 0 0 0 0 0 0 0 0 0 0 0 0 0 0 0 0 0 0
0 0 0 0 0 0 0 0 0 0 0 0 0 0 0 0 0 0 0 0 0 0 0 0 0 0 0 0 0 0 0 0 0 0 0 0 0 0 0 0 0 0 0
0 0 0 0 0 0 0 0 0 0 0 0 0 0 0 0 0 0 0 0 0 0 0 0 0 0 0 0 0 0 0 0 0 0 0 0 0 0 0 0 0 0 0
0 0 0 0 0 0 0 0 0 0 0 0 0 0 0 0 0 0 0 0 0 0 0 0 0 0 0 0 0 0 0 0 0 0 0 0 0 0 0 0 0 0 0
0 0 0 0 0 0 0 0 0 0 0 0 0 0 0 0 0 0 0 0 0 0 0 0 0 0 0 0 0 0 0 0 0 0 0 0 0 0 0 0 0 0 0
Wind_Speed
6 7 6 7 8 8 8 8 8 9 9 9 8 8 8 8 7 6 4 7 8 9 10 10 10 10 10 10 10 9 9 8 8 8 8 7 7 7 7 7 8 8 8
7 7 7 7 8 7 8 8 9 8 8 7 8 8 8 8 7 7 6 7 9 9 10 11 11 11 11 11 11 10 10 9 9 9 9 9 9 9 8 8 9 9 9
8 7 7 7 7 8 8 7 9 8 7 7 8 8 7 8 8 8 7 6 7 9 10 12 12 11 11 12 11 11 10 9 9 9 10 10 9 9 9 9 9 9 9
9 8 7 7 7 7 7 7 7 7 7 7 7 7 7 7 9 8 7 7 6 6 8 10 10 10 11 12 12 11 10 9 9 9 9 10 10 10 10 10 10 10 9
9 8 6 6 8 7 7 7 7 7 8 8 7 7 7 7 8 8 9 8 7 7 6 7 8 8 9 10 11 11 10 10 9 10 10 10 10 10 11 11 10 10 10
9 8 6 7 8 7 7 7 8 8 7 7 7 7 7 7 7 8 8 8 7 8 7 7 6 7 8 9 10 11 10 10 10 10 10 11 11 11 12 12 11 10 10
9 8 7 8 7 7 8 9 8 9 7 6 5 5 6 7 8 7 7 7 7 7 7 7 6 6 5 8 9 10 11 11 11 11 11 11 11 11 12 12 12 11 10
8 8 8 7 8 7 9 9 9 7 6 6 5 4 4 6 7 7 7 7 8 7 7 8 8 7 6 5 5 8 10 11 12 12 12 11 12 12 12 12 12 11 11
8 8 9 8 8 8 8 9 9 10 7 7 7 5 5 5 3 6 8 7 8 7 7 7 8 8 8 6 6 6 8 10 12 13 13 13 12 13 13 12 11 10 10
8 8 8 8 8 7 8 8 9 8 9 8 7 7 5 3 4 4 6 7 8 8 8 6 7 8 8 7 6 7 8 10 13 14 15 14 14 14 13 11 10 11 10
6 7 7 7 7 7 8 8 8 9 8 8 7 7 7 5 7 5 6 6 7 7 7 8 7 7 8 8 7 8 9 11 14 15 15 14 14 14 13 12 12 11 11
4 6 6 7 7 6 7 8 8 9 8 9 8 7 7 6 7 7 7 7 7 6 7 7 7 7 7 7 9 8 9 12 13 15 15 14 14 13 13 13 13 12 10
3 4 5 5 5 6 6 7 7 7 8 9 9 8 7 7 6 6 7 6 7 5 6 6 6 6 6 6 7 8 10 12 13 14 15 14 13 12 13 13 13 12 11
3 4 4 5 5 6 6 6 6 6 6 7 9 8 7 7 6 7 6 5 6 6 6 7 5 6 6 6 7 9 9 12 13 13 14 14 12 12 12 12 12 12 11
3 4 4 4 5 6 6 6 5 6 6 6 6 7 6 5 5 5 5 6 7 7 9 7 5 5 5 6 6 7 8 10 12 13 13 12 12 11 11 11 11 11 10
3 3 4 4 4 5 5 5 5 5 5 5 5 7 7 5 5 5 5 5 6 7 8 5 5 5 6 5 7 8 8 9 11 13 13 12 12 11 11 10 10 10 8
2 2 3 4 4 4 4 5 6 6 6 6 6 6 7 7 5 5 5 5 5 6 8 6 4 5 6 7 6 6 7 7 7 11 12 12 12 11 11 10 10 10 9
1 1 2 2 3 3 3 3 5 5 6 6 6 6 7 6 7 6 5 6 5 6 7 8 5 5 7 7 6 7 6 6 7 9 12 13 12 12 11 11 10 10 9
1 1 0 1 2 2 2 3 3 4 4 5 6 6 7 7 7 5 6 6 6 5 5 6 6 5 5 4 5 5 6 5 5 6 9 10 11 10 10 10 10 9 9
2 1 1 0 1 1 1 2 3 4 4 4 5 5 6 6 7 7 6 7 6 6 5 5 5 5 4 4 4 4 4 4 4 4 5 6 7 8 9 10 9 9 8
4 3 2 2 1 1 2 2 3 4 5 6 6 6 6 6 7 6 6 6 6 6 5 5 5 5 5 4 5 4 5 4 5 4 3 4 4 5 6 8 9 8 9
5 4 4 2 2 1 3 4 3 4 5 6 6 6 6 7 6 7 7 7 7 7 7 6 6 7 7 7 5 5 4 4 5 3 4 4 4 4 4 4 7 9 9
5 5 3 3 2 2 4 4 5 4 5 5 5 5 4 5 6 7 7 8 8 8 8 7 7 7 7 7 6 7 6 6 5 3 3 4 3 4 3 4 8 9 9
5 4 4 3 3 3 4 4 5 4 4 4 4 5 5 5 5 6 7 7 7 7 7 7 7 7 7 7 7 7 6 3 2 1 3 3 3 3 2 3 7 8 8
5 4 4 4 4 3 4 5 5 3 3 4 4 5 5 5 6 7 7 7 7 6 6 7 8 8 8 8 6 3 3 3 2 2 2 2 2 1 1 2 3 6 7
4 4 4 4 4 4 5 5 5 3 4 4 4 5 5 6 8 7 6 6 7 6 5 5 5 5 5 5 5 5 5 4 2 2 3 2 2 2 2 1 1 2 3
Wind_Direction
198 197 194 189 189 189 190 193 197 195 199 203 206 209 210 214 214 212 191 192 217 226 224 223 223 224 227 230 233 232 232 234 236 238 242 247 250 256 262 268 273 274 276
198 197 197 194 192 192 194 197 199 197 202 205 209 212 214 215 220 219 218 198 209 223 227 226 228 230 233 236 237 237 237 238 241 244 247 247 250 253 258 264 270 271 272
200 198 198 195 195 193 194 198 199 201 204 206 212 215 218 220 221 223 222 222 214 213 224 230 232 235 237 240 242 242 241 240 242 246 248 249 251 254 257 262 266 269 267
201 199 198 197 195 194 196 197 198 200 202 208 212 213 219 220 227 227 226 224 225 222 218 223 234 237 239 241 243 244 244 245 244 245 247 250 253 255 258 262 264 266 269
202 201 199 199 195 195 198 198 198 201 204 207 213 217 220 222 225 227 231 229 227 228 229 208 217 231 239 244 245 246 246 249 246 246 250 252 255 256 257 260 263 265 267
202 202 201 204 198 197 200 201 201 203 208 207 211 219 222 223 226 226 230 230 226 226 231 230 222 220 226 239 244 245 248 251 250 252 255 257 258 258 259 260 261 262 263
204 204 205 203 203 203 204 205 202 203 205 201 206 217 226 228 229 226 228 230 226 226 230 232 235 235 225 224 235 244 248 253 253 255 257 258 260 261 261 259 259 260 261
209 207 207 205 207 207 207 206 202 200 199 194 201 201 216 220 220 226 225 228 231 227 229 233 234 236 241 238 225 231 245 253 255 256 258 259 260 261 261 261 261 259 258
211 210 209 207 210 210 209 207 206 205 201 196 202 205 209 220 219 217 223 226 228 229 232 234 236 238 239 242 241 229 238 250 255 258 259 259 260 260 259 257 258 260 261
214 212 212 212 214 213 213 212 211 212 206 201 201 217 229 219 214 221 217 224 231 234 235 236 237 239 240 244 245 247 237 242 251 257 259 258 259 259 257 254 253 254 259
216 214 211 213 217 219 217 215 211 212 213 212 205 206 217 222 222 225 236 232 235 235 236 237 237 236 236 239 242 241 236 242 250 256 257 257 258 259 258 257 254 255 257
216 216 215 214 220 225 221 218 215 214 216 217 214 211 212 213 214 222 234 238 243 242 239 238 237 235 235 237 240 239 240 246 251 254 256 256 257 257 259 259 257 256 257
219 217 216 215 217 225 222 220 221 221 220 218 218 218 221 225 225 226 234 239 250 259 249 240 237 236 235 238 237 232 239 244 250 253 255 255 257 258 258 257 257 256 257
224 222 217 218 218 223 222 217 219 223 222 220 221 221 225 227 226 227 230 231 242 253 250 250 241 236 238 239 238 231 241 239 244 248 251 253 255 255 253 254 255 255 253
227 226 221 219 222 227 226 218 218 223 225 224 225 225 229 232 232 235 235 230 231 246 249 248 248 239 244 245 234 240 247 241 240 244 248 249 252 250 246 247 252 254 248
231 229 229 223 225 230 226 221 221 223 227 228 230 231 233 236 239 241 241 240 238 242 252 248 256 256 247 250 242 247 249 246 241 241 243 243 243 242 239 238 242 240 233
237 226 232 231 226 232 231 223 222 220 227 230 231 233 234 237 238 236 242 246 247 248 255 264 271 265 251 248 249 251 250 248 244 235 237 239 237 236 234 232 231 228 225
281 240 231 242 238 236 236 233 233 230 230 233 236 236 238 239 244 243 241 246 250 255 259 265 269 264 258 248 247 250 254 253 250 238 234 236 235 233 229 223 219 222 220
357 358 288 264 250 236 232 238 242 244 245 246 245 241 241 239 242 246 249 248 249 256 257 260 271 271 271 257 255 257 255 257 261 250 236 234 231 228 221 216 215 218 215
8 4 4 282 288 268 258 258 252 250 253 255 255 254 252 246 247 248 248 251 255 257 259 257 262 269 276 269 257 252 258 259 257 255 243 238 229 223 222 219 215 214 210
13 23 24 17 3 359 344 316 282 265 260 257 255 254 254 254 256 256 257 255 257 256 257 258 258 265 264 257 250 247 250 256 261 247 240 238 228 224 218 217 212 211 210
14 21 18 6 356 348 350 337 313 274 264 260 258 257 253 245 251 257 261 262 260 256 258 256 257 255 256 254 249 245 242 248 253 226 228 239 228 225 222 217 205 204 206
11 16 5 353 340 346 349 339 327 287 271 266 265 266 265 263 261 258 261 262 257 258 256 254 258 258 257 255 245 243 241 245 255 221 216 234 223 230 228 215 200 201 202
1 1 356 345 335 339 345 332 321 286 284 290 289 287 283 275 270 275 269 264 263 262 262 258 259 263 264 259 245 241 243 255 302 251 219 225 215 229 236 217 194 197 199
350 348 343 339 329 326 342 332 322 293 295 296 294 292 290 290 294 294 275 268 271 275 273 274 278 278 274 266 251 230 215 215 254 243 221 214 190 202 226 213 191 192 192
339 335 333 329 322 318 332 333 325 294 295 294 292 288 289 299 305 300 279 271 270 280 289 295 294 290 278 253 235 225 213 211 221 222 195 178 163 150 160 176 184 180 179